• Em Portugal
  • Lista de países
  • Para 7 dias
  • Temperatura da água
  • Mapas de satélite
  • Mapa do tempo
  • Widgets de tempo
  • user-avatar
    Iniciar Sessão

    Previsão horária em Escuintla

    Hoje, 24 Fevereiro, Sábado

    Tempo Temperatura Precipitação Vento Pressão Humidade
    00:00 +24°C° 0 mm 1 m/s 731 mmHg 73%
    01:00 +24°C° 0 mm 1 m/s 731 mmHg 73%
    02:00 +24°C° 0 mm 1 m/s 731 mmHg 73%
    03:00 +24°C° 0 mm 1 m/s 730 mmHg 73%
    04:00 +24°C° 0 mm 1 m/s 730 mmHg 73%
    05:00 +23°C° 0 mm 1 m/s 730 mmHg 73%
    06:00 +23°C° 0 mm 1 m/s 730 mmHg 73%
    07:00 +26°C° 0 mm 1 m/s 731 mmHg 64%
    08:00 +28°C° 0 mm 1 m/s 731 mmHg 55%
    09:00 +31°C° 0 mm 1 m/s 732 mmHg 46%
    10:00 +32°C° 0 mm 1 m/s 732 mmHg 44%
    11:00 +32°C° 0 mm 2 m/s 731 mmHg 43%
    12:00 +34°C° 0 mm 3 m/s 731 mmHg 41%
    13:00 +34°C° 0,4 mm 3 m/s 730 mmHg 45%
    14:00 +33°C° 0,4 mm 3 m/s 730 mmHg 50%
    15:00 +31°C° 0,4 mm 3 m/s 729 mmHg 55%
    16:00 +30°C° 0,7 mm 2 m/s 729 mmHg 61%
    17:00 +28°C° 0,7 mm 2 m/s 729 mmHg 67%
    18:00 +27°C° 0,7 mm 1 m/s 729 mmHg 73%
    19:00 +26°C° 0,4 mm 1 m/s 730 mmHg 77%
    20:00 +25°C° 0,4 mm 1 m/s 730 mmHg 80%
    21:00 +24°C° 0,4 mm 1 m/s 731 mmHg 83%
    22:00 +24°C° 0 mm 1 m/s 731 mmHg 82%
    23:00 +24°C° 0 mm 1 m/s 731 mmHg 82%

    Amanhã, 25 Fevereiro, Domingo

    Tempo Temperatura Precipitação Vento Pressão Humidade
    00:00 +24°C° 0 mm 1 m/s 731 mmHg 81%
    01:00 +23°C° 0 mm 1 m/s 730 mmHg 81%
    02:00 +23°C° 0 mm 1 m/s 730 mmHg 80%
    03:00 +23°C° 0 mm 1 m/s 730 mmHg 79%
    04:00 +23°C° 0 mm 1 m/s 730 mmHg 79%
    05:00 +23°C° 0 mm 1 m/s 730 mmHg 78%
    06:00 +22°C° 0 mm 1 m/s 730 mmHg 77%
    07:00 +25°C° 0 mm 1 m/s 731 mmHg 68%
    08:00 +28°C° 0 mm 1 m/s 731 mmHg 58%
    09:00 +30°C° 0 mm 1 m/s 732 mmHg 49%
    10:00 +31°C° 0 mm 1 m/s 731 mmHg 46%
    11:00 +32°C° 0 mm 2 m/s 731 mmHg 43%
    12:00 +34°C° 0 mm 3 m/s 731 mmHg 40%
    13:00 +34°C° 0,6 mm 3 m/s 730 mmHg 44%
    14:00 +33°C° 0,6 mm 3 m/s 729 mmHg 47%
    15:00 +33°C° 0,6 mm 3 m/s 729 mmHg 50%
    16:00 +30°C° 0,5 mm 2 m/s 729 mmHg 57%
    17:00 +29°C° 0,5 mm 2 m/s 729 mmHg 63%
    18:00 +27°C° 0,5 mm 1 m/s 729 mmHg 70%
    19:00 +26°C° 0,1 mm 1 m/s 730 mmHg 74%
    20:00 +25°C° 0,1 mm 1 m/s 731 mmHg 77%
    21:00 +24°C° 0,1 mm 1 m/s 731 mmHg 81%
    22:00 +24°C° 0 mm 1 m/s 731 mmHg 81%
    23:00 +24°C° 0 mm 1 m/s 731 mmHg 80%

    Depois de amanhã, 26 Fevereiro, Segunda-feira

    Tempo Temperatura Precipitação Vento Pressão Humidade
    00:00 +23°C° 0 mm 1 m/s 731 mmHg 80%
    01:00 +23°C° 0 mm 1 m/s 731 mmHg 79%
    02:00 +23°C° 0 mm 1 m/s 731 mmHg 79%
    03:00 +23°C° 0 mm 1 m/s 730 mmHg 78%
    04:00 +22°C° 0 mm 1 m/s 730 mmHg 76%
    05:00 +22°C° 0 mm 1 m/s 731 mmHg 75%
    06:00 +22°C° 0 mm 1 m/s 731 mmHg 73%
    07:00 +25°C° 0 mm 1 m/s 731 mmHg 63%
    08:00 +28°C° 0 mm 1 m/s 732 mmHg 54%
    09:00 +30°C° 0 mm 1 m/s 732 mmHg 44%
    10:00 +32°C° 0 mm 2 m/s 732 mmHg 41%
    11:00 +34°C° 0 mm 2 m/s 732 mmHg 37%
    12:00 +36°C° 0 mm 3 m/s 731 mmHg 33%
    13:00 +35°C° 0 mm 3 m/s 731 mmHg 36%
    14:00 +34°C° 0 mm 3 m/s 730 mmHg 40%
    15:00 +33°C° 0 mm 3 m/s 729 mmHg 44%
    16:00 +31°C° 0,1 mm 2 m/s 729 mmHg 52%
    17:00 +29°C° 0,1 mm 2 m/s 729 mmHg 59%
    18:00 +27°C° 0,1 mm 1 m/s 730 mmHg 67%
    19:00 +26°C° 0 mm 1 m/s 730 mmHg 70%
    20:00 +25°C° 0 mm 1 m/s 731 mmHg 74%
    21:00 +24°C° 0 mm 1 m/s 732 mmHg 77%
    22:00 +24°C° 0 mm 1 m/s 732 mmHg 76%
    23:00 +24°C° 0 mm 1 m/s 731 mmHg 75%

    27 Fevereiro, Terça-feira

    Tempo Temperatura Precipitação Vento Pressão Humidade
    00:00 +24°C° 0 mm 2 m/s 731 mmHg 74%
    01:00 +24°C° 0 mm 2 m/s 731 mmHg 74%
    02:00 +23°C° 0 mm 2 m/s 731 mmHg 74%
    03:00 +23°C° 0 mm 2 m/s 730 mmHg 74%
    04:00 +23°C° 0 mm 2 m/s 731 mmHg 74%
    05:00 +23°C° 0 mm 2 m/s 731 mmHg 73%
    06:00 +23°C° 0 mm 2 m/s 731 mmHg 72%
    07:00 +25°C° 0 mm 1 m/s 731 mmHg 63%
    08:00 +28°C° 0 mm 1 m/s 732 mmHg 53%
    09:00 +30°C° 0 mm 1 m/s 733 mmHg 43%
    10:00 +32°C° 0 mm 2 m/s 732 mmHg 39%
    11:00 +34°C° 0 mm 2 m/s 732 mmHg 34%
    12:00 +36°C° 0 mm 3 m/s 731 mmHg 29%
    13:00 +36°C° 0 mm 3 m/s 730 mmHg 31%
    14:00 +35°C° 0 mm 3 m/s 730 mmHg 33%
    15:00 +35°C° 0 mm 4 m/s 729 mmHg 34%
    16:00 +33°C° 0,1 mm 3 m/s 729 mmHg 44%
    17:00 +30°C° 0,1 mm 2 m/s 729 mmHg 53%
    18:00 +28°C° 0,1 mm 1 m/s 729 mmHg 63%
    19:00 +26°C° 0 mm 1 m/s 730 mmHg 66%
    20:00 +25°C° 0 mm 1 m/s 730 mmHg 70%
    21:00 +24°C° 0 mm 1 m/s 731 mmHg 74%
    22:00 +24°C° 0 mm 1 m/s 731 mmHg 73%
    23:00 +24°C° 0 mm 1 m/s 731 mmHg 73%

    28 Fevereiro, Quarta-feira

    Tempo Temperatura Precipitação Vento Pressão Humidade
    00:00 +23°C° 0 mm 1 m/s 731 mmHg 72%
    01:00 +23°C° 0 mm 1 m/s 730 mmHg 71%
    02:00 +23°C° 0 mm 1 m/s 730 mmHg 71%
    03:00 +23°C° 0 mm 1 m/s 729 mmHg 71%
    04:00 +23°C° 0 mm 1 m/s 729 mmHg 69%
    05:00 +22°C° 0 mm 1 m/s 729 mmHg 68%
    06:00 +22°C° 0 mm 1 m/s 730 mmHg 66%
    07:00 +25°C° 0 mm 1 m/s 730 mmHg 56%
    08:00 +28°C° 0 mm 1 m/s 731 mmHg 47%
    09:00 +30°C° 0 mm 1 m/s 731 mmHg 37%
    10:00 +32°C° 0 mm 1 m/s 731 mmHg 34%
    11:00 +34°C° 0 mm 2 m/s 730 mmHg 31%
    12:00 +36°C° 0 mm 2 m/s 730 mmHg 28%
    13:00 +35°C° 0 mm 3 m/s 729 mmHg 31%
    14:00 +35°C° 0 mm 3 m/s 728 mmHg 34%
    15:00 +34°C° 0 mm 3 m/s 727 mmHg 37%
    16:00 +33°C° 0 mm 3 m/s 728 mmHg 46%
    17:00 +30°C° 0 mm 2 m/s 728 mmHg 55%
    18:00 +28°C° 0 mm 2 m/s 728 mmHg 64%
    19:00 +27°C° 0 mm 1 m/s 728 mmHg 70%
    20:00 +26°C° 0 mm 1 m/s 729 mmHg 75%
    21:00 +25°C° 0 mm 1 m/s 729 mmHg 81%
    22:00 +25°C° 0 mm 1 m/s 729 mmHg 82%
    23:00 +24°C° 0 mm 1 m/s 729 mmHg 82%

    1 Março, Quinta-feira

    Tempo Temperatura Precipitação Vento Pressão Humidade
    00:00 +24°C° 0 mm 1 m/s 729 mmHg 83%
    01:00 +24°C° 0 mm 1 m/s 729 mmHg 82%
    02:00 +23°C° 0 mm 1 m/s 729 mmHg 82%
    03:00 +23°C° 0 mm 1 m/s 728 mmHg 81%
    04:00 +23°C° 0 mm 1 m/s 729 mmHg 81%
    05:00 +23°C° 0 mm 1 m/s 729 mmHg 80%
    06:00 +23°C° 0 mm 1 m/s 729 mmHg 80%
    07:00 +25°C° 0 mm 1 m/s 729 mmHg 69%
    08:00 +28°C° 0 mm 1 m/s 730 mmHg 59%
    09:00 +30°C° 0 mm 1 m/s 730 mmHg 49%
    10:00 +31°C° 0 mm 2 m/s 730 mmHg 46%
    11:00 +32°C° 0 mm 2 m/s 730 mmHg 44%
    12:00 +34°C° 0 mm 2 m/s 729 mmHg 41%
    13:00 +34°C° 0 mm 3 m/s 729 mmHg 43%
    14:00 +34°C° 0 mm 3 m/s 728 mmHg 45%
    15:00 +34°C° 0 mm 3 m/s 727 mmHg 46%
    16:00 +31°C° 0,1 mm 2 m/s 728 mmHg 53%
    17:00 +30°C° 0,1 mm 2 m/s 728 mmHg 60%
    18:00 +28°C° 0,1 mm 1 m/s 728 mmHg 66%
    19:00 +27°C° 0 mm 1 m/s 729 mmHg 70%
    20:00 +26°C° 0 mm 1 m/s 729 mmHg 75%
    21:00 +25°C° 0 mm 1 m/s 730 mmHg 79%
    22:00 +25°C° 0 mm 1 m/s 730 mmHg 78%
    23:00 +25°C° 0 mm 1 m/s 730 mmHg 76%
    Mostrar mais